OE5OVL-13 Weather Reports


Display with metric or nautical units.
time (UTC)temp
F
wind
direction
speed
MPH
gust
MPH
rain 1hr
in
rain 24hr
in
rain mn
in
humidity
%
barometer
mb
20260905231224 65 0.0 0.0 0.00 0.00 0.00 88 1025.2
20260905225712 64 0.0 0.0 0.00 0.00 0.00 89 1025.1
20260905224201 64 0.0 0.0 0.00 0.00 0.00 86 1024.9
20260905222649 64 0.0 0.0 0.00 0.00 0.00 86 1024.7
20260905221137 64 0.0 0.0 0.00 0.00 0.00 84 1024.6
20260905215625 65 0.0 0.0 0.00 0.00 0.00 83 1024.5
20260905214114 65 0.0 0.0 0.00 0.00 0.00 84 1024.3
20260905212602 65 0.0 0.0 0.00 0.00 0.00 83 1024.2
20260905211050 65 0.0 0.0 0.00 0.00 0.00 80 1024.0
20260905205538 65 0.0 0.0 0.00 0.00 0.00 78 1024.0
20260905204027 66 0.0 0.0 0.00 0.00 0.00 75 1024.0
20260905202515 68 0.0 0.0 0.00 0.00 0.00 71 1023.9
20260905201003 70 0.0 0.0 0.00 0.00 0.00 66 1023.8
20260905195451 70 0.0 0.0 0.00 0.00 0.00 67 1023.7
20260905193940 69 0.0 0.0 0.00 0.00 0.00 67 1023.6
20260905192428 70 0.0 0.0 0.00 0.00 0.00 66 1023.5
20260905190916 71 0.0 0.0 0.00 0.00 0.00 62 1023.3
20260905185404 72 0.0 0.0 0.00 0.00 0.00 61 1023.1
20260905183853 71 0.0 0.0 0.00 0.00 0.00 63 1023.0
20260905182341 72 0.0 0.0 0.00 0.00 0.00 61 1022.8
20260905180829 73 0.0 0.0 0.00 0.00 0.00 57 1022.6
20260905175317 74 0.0 0.0 0.00 0.00 0.00 55 1022.5
20260905173806 75 0.0 0.0 0.00 0.00 0.00 53 1022.1
20260905172254 76 0.0 0.0 0.00 0.00 0.00 51 1022.0
20260905170742 78 0.0 0.0 0.00 0.00 0.00 47 1021.9
20260905165230 85 0.0 0.0 0.00 0.00 0.00 38 1021.8
20260905163719 90 0.0 0.0 0.00 0.00 0.00 35 1021.8
20260905162207 89 0.0 0.0 0.00 0.00 0.00 35 1021.7
20260905160655 89 0.0 0.0 0.00 0.00 0.00 35 1021.7
20260905155143 89 0.0 0.0 0.00 0.00 0.00 35 1021.6
20260905153632 90 0.0 0.0 0.00 0.00 0.00 34 1021.5
20260905152120 88 0.0 0.0 0.00 0.00 0.00 36 1021.5
20260905150608 90 0.0 0.0 0.00 0.00 0.00 35 1021.5
20260905145056 90 0.0 0.0 0.00 0.00 0.00 35 1021.4
20260905143545 87 0.0 0.0 0.00 0.00 0.00 38 1021.7
20260905142033 87 0.0 0.0 0.00 0.00 0.00 39 1021.8
20260905140521 87 0.0 0.0 0.00 0.00 0.00 39 1021.7
20260905135009 84 0.0 0.0 0.00 0.00 0.00 42 1021.9
20260905133458 83 0.0 0.0 0.00 0.00 0.00 44 1021.7
20260905131946 80 0.0 0.0 0.00 0.00 0.00 47 1022.0
20260905130434 80 0.0 0.0 0.00 0.00 0.00 50 1022.2
20260905124922 79 0.0 0.0 0.00 0.00 0.00 51 1022.3
20260905123411 75 0.0 0.0 0.00 0.00 0.00 58 1022.6
20260905121859 78 0.0 0.0 0.00 0.00 0.00 54 1022.6
20260905120347 79 0.0 0.0 0.00 0.00 0.00 54 1022.7
20260905114835 77 0.0 0.0 0.00 0.00 0.00 56 1022.6
20260905113324 76 0.0 0.0 0.00 0.00 0.00 61 1022.5
20260905111812 75 0.0 0.0 0.00 0.00 0.00 57 1022.6
20260905110300 72 0.0 0.0 0.00 0.00 0.00 65 1022.6
20260905104748 73 0.0 0.0 0.00 0.00 0.00 70 1022.8
20260905103237 72 0.0 0.0 0.00 0.00 0.00 76 1022.7
20260905101725 71 0.0 0.0 0.00 0.00 0.00 80 1022.9
20260905100213 70 0.0 0.0 0.00 0.00 0.00 80 1022.9
20260905094701 71 0.0 0.0 0.00 0.00 0.00 82 1023.0
20260905093150 70 0.0 0.0 0.00 0.00 0.00 83 1022.9
20260905091638 68 0.0 0.0 0.00 0.00 0.00 90 1023.0
20260905090126 67 0.0 0.0 0.00 0.00 0.00 98 1023.2
20260905084614 66 0.0 0.0 0.00 0.00 0.00 99 1023.0
20260905083103 66 0.0 0.0 0.00 0.00 0.00 96 1023.0
20260905081551 66 0.0 0.0 0.00 0.00 0.00 10 1023.0
20260905080039 66 0.0 0.0 0.00 0.00 0.00 10 1022.7
20260905074527 65 0.0 0.0 0.00 0.00 0.00 10 1022.6
20260905073016 66 0.0 0.0 0.00 0.00 0.00 10 1022.9
20260905071503 66 0.0 0.0 0.00 0.00 0.00 10 1022.5
20260905065952 66 0.0 0.0 0.00 0.00 0.00 10 1022.7
20260905064440 65 0.0 0.0 0.00 0.00 0.00 10 1022.4
20260905061416 66 0.0 0.0 0.00 0.00 0.00 10 1021.2
20260905055904 66 0.0 0.0 0.00 0.00 0.00 10 1020.7
20260905054353 65 0.0 0.0 0.00 0.00 0.00 10 1020.4
20260905051328 66 0.0 0.0 0.00 0.00 0.00 85 1019.3
20260905045816 67 0.0 0.0 0.00 0.00 0.00 80 1019.0
20260905044305 70 0.0 0.0 0.00 0.00 0.00 59 1018.3
20260905042753 71 0.0 0.0 0.00 0.00 0.00 62 1017.8
20260905041241 71 0.0 0.0 0.00 0.00 0.00 64 1017.2
20260905035729 70 0.0 0.0 0.00 0.00 0.00 71 1016.8
20260905025642 69 0.0 0.0 0.00 0.00 0.00 75 1016.3
20260905015555 70 0.0 0.0 0.00 0.00 0.00 74 1015.6
20260905012532 71 0.0 0.0 0.00 0.00 0.00 71 1015.5
20260905011020 71 0.0 0.0 0.00 0.00 0.00 71 1015.4
20260905005508 71 0.0 0.0 0.00 0.00 0.00 72 1015.4
20260905003957 72 0.0 0.0 0.00 0.00 0.00 68 1015.3
20260905002445 71 0.0 0.0 0.00 0.00 0.00 71 1015.3
20260905000933 72 0.0 0.0 0.00 0.00 0.00 69 1015.2
20260904235421 71 0.0 0.0 0.00 0.00 0.00 67 1015.1
20260904233909 72 0.0 0.0 0.00 0.00 0.00 66 1015.0
20260904232358 72 0.0 0.0 0.00 0.00 0.00 63 1014.9